Hoquiam, WA
on Tuesday, February 19, 2013

Tuesday
Previous Day Next Day
Daily Summary
 ActualAverageRecord
Temperature
Mean Temperature °F 44°F  
Max Temperature 48°F 50°F 61°F (1978)
Min Temperature 34°F 38°F 22°F (2006)
Degree Days
Heating Degree Days 23 21  
Month to date heating degree days 409  
Cooling Degree Days 0 0  
Month to date cooling degree days 0  
Year to date cooling degree days 0  
Moisture
Dew Point 37°F   
Average Humidity 86    
Maximum Humidity 96    
Minimum Humidity 66    
Precipitation
Precipitation 0.00 in 0.24 in 3.26 in (1991)
Month to date precipitation 5.04  
Year to date precipitation 15.37  
Wind
Wind Speed 5 mph   
Max Wind Speed 10 mph   
Max Gust Speed mph   
Visibility 10 miles   
Events     

Key: T is trace of precipitation, MM is missing value
Source: NWS Daily Summary
Time(PST)TemperatureDew PointHumidity Pressure Visibility Wind DirectionWind SpeedGust SpeedPrecipitationEvents Conditions
12:04 AM 41.0°F 37.4°F 87% 29.72 in 10.0 miles NE 5.8 mph - N/A   Overcast
12:53 AM 39.9°F 37.0°F 89% 29.73 in 10.0 miles NE 5.8 mph - N/A   Mostly Cloudy
1:32 AM 39.2°F 37.4°F 93% 29.71 in 10.0 miles NE 8.1 mph - N/A   Overcast
1:53 AM 39.9°F 37.9°F 93% 29.73 in 10.0 miles NE 5.8 mph - N/A   Overcast
2:53 AM 39.9°F 37.0°F 89% 29.73 in 10.0 miles NE 6.9 mph - N/A   Overcast
3:18 AM 39.2°F 37.4°F 93% 29.72 in 10.0 miles NE 8.1 mph - N/A   Overcast
3:49 AM 39.2°F 37.4°F 93% 29.72 in 10.0 miles NE 5.8 mph - N/A   Overcast
3:53 AM 39.9°F 37.0°F 89% 29.73 in 10.0 miles NE 5.8 mph - N/A   Mostly Cloudy
4:53 AM 39.0°F 37.0°F 93% 29.74 in 10.0 miles NNE 5.8 mph - N/A   Scattered Clouds
5:53 AM 37.9°F 36.0°F 93% 29.75 in 10.0 miles NNE 4.6 mph - N/A   Partly Cloudy
6:53 AM 37.9°F 36.0°F 93% 29.76 in 10.0 miles NNE 3.5 mph - N/A   Overcast
7:53 AM 39.0°F 37.0°F 93% 29.79 in 10.0 miles NNE 5.8 mph - N/A   Overcast
8:53 AM 41.0°F 37.4°F 87% 29.80 in 10.0 miles NE 3.5 mph - N/A   Overcast
10:53 AM 45.0°F 39.9°F 82% 29.83 in 10.0 miles East 4.6 mph - N/A   Clear
12:53 PM 48.0°F 37.9°F 68% 29.86 in 10.0 miles West 10.4 mph - N/A   Overcast
1:53 PM 48.0°F 37.9°F 68% 29.86 in 10.0 miles WNW 9.2 mph - N/A   Overcast
4:53 PM 48.0°F 37.0°F 66% 29.89 in 10.0 miles West 5.8 mph - N/A   Clear
5:53 PM 45.0°F 37.9°F 76% 29.91 in 10.0 miles WNW 4.6 mph - N/A   Mostly Cloudy
6:53 PM 43.0°F 37.0°F 80% 29.94 in 10.0 miles Calm Calm - N/A   Clear
7:32 PM 42.8°F 37.4°F 81% 29.93 in 10.0 miles WNW 3.5 mph - N/A   Mostly Cloudy
7:53 PM 42.1°F 37.9°F 85% 29.95 in 10.0 miles WNW 3.5 mph - N/A   Scattered Clouds
8:53 PM 41.0°F 37.0°F 86% 29.98 in 10.0 miles Calm Calm - N/A   Scattered Clouds
9:53 PM 37.4°F 35.6°F 93% 29.98 in 10.0 miles Calm Calm - N/A   Clear
10:53 PM 36.0°F 34.0°F 93% 30.01 in 10.0 miles Calm Calm - N/A   Clear
11:53 PM 34.0°F 33.1°F 96% 30.01 in 10.0 miles Calm Calm - N/A   Clear
Moon Phase
Feb. 19 Feb. 25 Mar. 04 Mar. 11 Mar. 19
Sunrise:07:12 AM (PST) Moon Rise:12:10 PM (PST)2/19
Sunset:05:46 PM (PST) Moon Set:03:01 AM (PST)2/19

Copyright © 2014 The Weather Underground, Inc.